TimePDT,TemperatureF,Dew PointF,Humidity,Sea Level PressureIn,VisibilityMPH,Wind Direction,Wind SpeedMPH,Gust SpeedMPH,PrecipitationIn,Events,Conditions,WindDirDegrees,DateUTC
12:53 AM,62.1,51.1,67,29.85,-9999.0,SSE,6.9,-,N/A,,Unknown,160,2013-07-28 07:53:00
1:53 AM,59.0,50.0,72,29.84,-9999.0,Calm,Calm,-,N/A,,Unknown,0,2013-07-28 08:53:00
2:53 AM,57.0,50.0,77,29.85,-9999.0,SSW,9.2,-,N/A,,Unknown,200,2013-07-28 09:53:00
3:53 AM,55.9,48.9,77,29.86,-9999.0,South,4.6,-,N/A,,Unknown,170,2013-07-28 10:53:00
4:53 AM,54.0,48.0,80,29.88,-9999.0,South,5.8,-,N/A,,Unknown,190,2013-07-28 11:53:00
5:53 AM,54.0,46.9,77,29.88,-9999.0,South,9.2,-,N/A,,Unknown,170,2013-07-28 12:53:00
6:53 AM,61.0,48.9,64,29.86,-9999.0,Variable,4.6,-,N/A,,Unknown,0,2013-07-28 13:53:00
7:53 AM,66.0,50.0,56,29.86,-9999.0,SW,5.8,-,N/A,,Unknown,220,2013-07-28 14:53:00
8:53 AM,71.1,46.0,41,29.87,-9999.0,Calm,Calm,-,N/A,,Unknown,0,2013-07-28 15:53:00
9:53 AM,75.9,45.0,33,29.83,-9999.0,Variable,3.5,-,N/A,,Unknown,0,2013-07-28 16:53:00
10:53 AM,80.1,39.9,24,29.82,-9999.0,ESE,6.9,-,N/A,,Unknown,120,2013-07-28 17:53:00
11:53 AM,82.0,39.0,22,29.79,-9999.0,Calm,Calm,-,N/A,,Unknown,0,2013-07-28 18:53:00
12:53 PM,86.0,30.0,13,29.76,-9999.0,WSW,11.5,-,N/A,,Unknown,250,2013-07-28 19:53:00
1:53 PM,88.0,30.0,12,29.73,-9999.0,West,8.1,26.5,N/A,,Unknown,270,2013-07-28 20:53:00
2:53 PM,82.9,33.1,17,29.73,-9999.0,NNE,13.8,-,N/A,,Unknown,30,2013-07-28 21:53:00
3:53 PM,73.0,51.1,46,29.83,-9999.0,South,10.4,20.7,0.11,,Unknown,190,2013-07-28 22:53:00
4:53 PM,77.0,46.0,33,29.80,-9999.0,ESE,9.2,-,N/A,,Unknown,120,2013-07-28 23:53:00
5:53 PM,78.1,39.9,25,29.78,-9999.0,Calm,Calm,-,N/A,,Unknown,0,2013-07-29 00:53:00
6:53 PM,75.0,42.1,31,29.79,-9999.0,WSW,11.5,-,N/A,,Unknown,250,2013-07-29 01:53:00
7:53 PM,71.1,42.1,35,29.78,-9999.0,WSW,13.8,24.2,N/A,,Unknown,240,2013-07-29 02:53:00
8:53 PM,71.1,43.0,36,29.80,-9999.0,South,9.2,-,N/A,,Unknown,190,2013-07-29 03:53:00
9:53 PM,69.1,44.1,40,29.81,-9999.0,Calm,Calm,-,N/A,,Unknown,0,2013-07-29 04:53:00
10:53 PM,66.9,45.0,45,29.80,-9999.0,Calm,Calm,-,N/A,,Unknown,0,2013-07-29 05:53:00
11:53 PM,64.9,46.9,52,29.80,-9999.0,SSE,12.7,-,N/A,,Unknown,150,2013-07-29 06:53:00